Waarnemingen

Advertentie
Mijn weer
Terschelling/Hoorn, Nederland (6251): temperatuur & dauwpunt: 19.09.2017 06:00:00 - 25.09.2017 06:00:00 (CEST)Terschelling/Hoorn, Nederland (6251): temperatuur 5cm: 19.09.2017 06:00:00 - 25.09.2017 06:00:00 (CEST)Terschelling/Hoorn, Nederland (6251): windsnelheid & windstoten: 19.09.2017 06:00:00 - 25.09.2017 06:00:00 (CEST)Terschelling/Hoorn, Nederland (6251): windrichting: 19.09.2017 06:00:00 - 25.09.2017 06:00:00 (CEST)Terschelling/Hoorn, Nederland (6251): luchtdruk: 19.09.2017 06:00:00 - 25.09.2017 06:00:00 (CEST)Terschelling/Hoorn, Nederland (6251): zicht: 19.09.2017 06:00:00 - 25.09.2017 06:00:00 (CEST)Terschelling/Hoorn, Nederland (6251): neerslag: 19.09.2017 06:00:00 - 25.09.2017 06:00:00 (CEST)
Datum & Tijd tt [°C] td [°C] tt 5cm [°C] ff [km/u] ff [kn] fx [km/u] fx [kn] dd ppp [hPa] vv [km] rr [mm]
25.09.2017 06:00:00 13,6 13,5 13,3 17 9 - - O 1022,9 2,0 -
25.09.2017 05:00:00 14,2 14,1 14,0 11 6 25 14 ZO 1023,2 2,7 0,0
25.09.2017 04:00:00 14,5 14,1 13,7 18 10 25 14 OZO 1023,2 4,7 0,0
25.09.2017 03:00:00 14,3 14,0 13,5 18 10 22 12 O 1023,4 6 0,0
25.09.2017 02:00:00 12,4 12,2 11,4 11 6 18 10 O 1023,7 3,7 0,0
25.09.2017 01:00:00 14,0 13,7 13,1 14 8 22 12 O 1024,0 6 0,0
25.09.2017 00:00:00 14,0 13,8 12,2 18 10 22 12 O 1024,3 8 0,0
24.09.2017 23:00:00 13,8 13,5 11,6 14 8 22 12 O 1024,2 8 0,0
24.09.2017 22:00:00 12,7 12,3 11,8 14 8 22 12 ONO 1024,2 11 0,0
24.09.2017 21:00:00 13,2 12,4 12,3 14 8 22 12 ONO 1024,0 18 0,0
24.09.2017 20:00:00 13,5 12,2 12,7 18 10 22 12 ONO 1023,8 18 0,0
24.09.2017 19:00:00 14,7 12,6 14,2 18 10 25 14 ONO 1023,6 19 0,0
24.09.2017 18:00:00 16,2 12,6 16,2 18 10 25 14 ONO 1023,6 28 0,0
24.09.2017 17:00:00 17,1 13,2 17,6 18 10 25 14 ONO 1023,7 18 0,0
24.09.2017 16:00:00 17,0 13,1 17,9 18 10 25 14 O 1024,1 27 0,0
24.09.2017 15:00:00 17,0 12,6 18,3 18 10 25 14 O 1024,2 20 0,0
24.09.2017 14:00:00 16,8 14,2 18,4 14 8 18 10 O 1024,2 7 0,0
24.09.2017 13:00:00 15,8 14,9 17,3 14 8 18 10 O 1024,2 4,3 0,0
24.09.2017 12:00:00 14,9 14,0 16,6 11 6 14 8 O 1024,3 8 0,0
24.09.2017 11:00:00 15,3 14,4 16,6 11 6 11 6 O 1024,4 10 0,0
24.09.2017 10:00:00 14,1 13,2 14,8 7 4 11 6 O 1024,1 10 0,0
24.09.2017 09:00:00 11,8 11,8 10,3 4 2 11 6 ONO 1023,9 0,9 0,0
24.09.2017 08:00:00 8,1 8,0 4,1 11 6 11 6 ONO 1023,8 0,1 0,0
24.09.2017 07:00:00 7,9 7,8 4,2 7 4 7 4 O 1023,5 0,1 0,0
24.09.2017 06:00:00 10,7 10,5 6,5 4 2 14 8 ONO 1023,5 5 0,0
24.09.2017 05:00:00 11,5 10,9 9,9 11 6 18 10 OZO 1023,6 11 0,0
24.09.2017 04:00:00 9,1 9,0 5,5 11 6 18 10 O 1023,7 6 0,0
24.09.2017 03:00:00 10,8 10,4 6,7 11 6 18 10 O 1023,7 12 0,0
24.09.2017 02:00:00 9,7 9,5 6,5 11 6 14 8 O 1023,8 21 0,0
24.09.2017 01:00:00 8,7 8,6 4,5 7 4 11 6 ONO 1024,0 16 0,0
24.09.2017 00:00:00 8,0 7,5 3,7 7 4 7 4 ONO 1024,2 20 0,0
23.09.2017 23:00:00 8,9 8,1 3,9 7 4 7 4 NO 1024,2 25 0,0
23.09.2017 22:00:00 8,9 8,2 4,5 7 4 11 6 NO 1024,4 22 0,0
23.09.2017 21:00:00 9,7 8,5 5,7 7 4 14 8 NO 1024,6 24 0,0
23.09.2017 20:00:00 10,7 9,1 7,3 11 6 11 6 NO 1024,3 23 0,0
23.09.2017 19:00:00 13,5 10,9 13,5 7 4 11 6 NO 1024,1 22 0,0
23.09.2017 18:00:00 15,5 11,0 16,4 4 2 7 4 ZO 1024,0 35 0,0
23.09.2017 17:00:00 15,8 10,4 17,0 7 4 11 6 ZZO 1024,0 26 0,0
23.09.2017 16:00:00 16,0 11,0 18,0 7 4 14 8 Z 1024,3 31 0,0
23.09.2017 15:00:00 16,1 11,4 18,1 11 6 14 8 Z 1024,8 26 0,0
23.09.2017 14:00:00 16,2 11,9 18,2 11 6 14 8 Z 1025,1 30 0,0
23.09.2017 13:00:00 16,0 11,6 18,0 11 6 14 8 Z 1025,0 32 0,0
23.09.2017 12:00:00 15,8 12,6 17,7 11 6 14 8 Z 1025,0 28 0,0
23.09.2017 11:00:00 15,2 11,8 16,6 7 4 11 6 Z 1024,8 30 0,0
23.09.2017 10:00:00 14,3 11,7 15,2 4 2 7 4 ZZW 1024,5 33 0,0
23.09.2017 09:00:00 10,2 10,0 10,1 4 2 4 2 Z 1024,2 29 0,0
23.09.2017 08:00:00 5,1 5,1 2,2 4 2 4 2 ZW 1023,8 20 0,0
23.09.2017 07:00:00 4,0 4,0 2,6 4 2 7 4 WZW 1023,6 3,8 0,0
23.09.2017 06:00:00 5,3 5,3 2,5 4 2 7 4 WZW 1023,5 3,3 0,0
23.09.2017 05:00:00 6,1 6,1 2,1 4 2 7 4 WZW 1023,5 8 0,0
23.09.2017 04:00:00 6,2 6,2 2,7 4 2 7 4 W 1023,4 35 0,0
23.09.2017 03:00:00 6,6 6,6 4,1 7 4 11 6 W 1023,3 42 0,0
23.09.2017 02:00:00 6,0 6,0 3,4 7 4 7 4 W 1023,2 34 0,0
23.09.2017 01:00:00 7,9 7,7 3,6 7 4 7 4 W 1023,1 38 0,0
23.09.2017 00:00:00 7,6 7,5 3,7 4 2 7 4 W 1022,7 21 0,0
22.09.2017 23:00:00 9,2 9,0 6,7 7 4 11 6 W 1022,6 33 0,0
22.09.2017 22:00:00 8,7 8,4 7,2 7 4 7 4 W 1022,3 33 0,0
22.09.2017 21:00:00 9,6 9,0 7,7 4 2 11 6 W 1022,0 20 0,0
22.09.2017 20:00:00 12,5 10,8 11,1 7 4 14 8 WNW 1021,5 15 0,0
22.09.2017 19:00:00 14,7 12,5 14,4 11 6 14 8 WNW 1021,1 37 0,0
22.09.2017 18:00:00 15,4 13,3 15,4 7 4 11 6 NW 1020,8 41 0,0
22.09.2017 17:00:00 15,3 14,0 15,3 7 4 11 6 NW 1020,5 26 0,0
22.09.2017 16:00:00 14,8 14,3 15,0 4 2 18 10 WNW 1020,4 9 0,4
22.09.2017 15:00:00 15,2 13,9 15,5 11 6 25 14 ZZW 1020,2 15 0,0
22.09.2017 14:00:00 15,2 13,7 15,2 14 8 25 14 ZZW 1020,1 19 0,0
22.09.2017 13:00:00 15,6 14,3 15,7 4 2 14 8 ZW 1019,9 11 0,0
22.09.2017 12:00:00 15,2 13,7 15,3 11 6 14 8 ZW 1019,9 8 0,0
22.09.2017 11:00:00 14,5 13,3 14,7 11 6 14 8 Z 1019,8 4,4 0,0
22.09.2017 10:00:00 14,7 12,5 15,6 11 6 11 6 ZZO 1019,5 7 0,0
22.09.2017 09:00:00 14,1 12,1 13,4 7 4 11 6 Z 1019,3 6 0,0
22.09.2017 08:00:00 10,8 9,6 9,1 4 2 11 6 N 1019,1 5 0,0
22.09.2017 07:00:00 12,0 10,7 11,1 11 6 14 8 ZZO 1018,7 6 0,0
22.09.2017 06:00:00 12,3 10,9 11,3 11 6 18 10 ZZO 1018,7 6 0,0
22.09.2017 05:00:00 12,9 10,9 11,9 14 8 18 10 ZZO 1018,8 8 0,0
22.09.2017 04:00:00 13,6 11,0 13,0 14 8 18 10 ZZO 1018,7 12 0,0
22.09.2017 03:00:00 13,5 11,1 12,5 14 8 18 10 ZZO 1019,1 13 0,0
22.09.2017 02:00:00 13,5 11,4 12,8 14 8 18 10 ZO 1019,2 13 0,0
22.09.2017 01:00:00 13,6 11,4 12,8 14 8 18 10 ZZO 1019,3 16 0,0
22.09.2017 00:00:00 13,9 11,7 13,0 14 8 22 12 ZZO 1019,4 17 0,0
21.09.2017 23:00:00 14,2 12,2 13,4 18 10 22 12 ZZO 1019,4 14 0,0
21.09.2017 22:00:00 14,3 12,3 13,6 14 8 22 12 ZO 1019,3 15 0,0
21.09.2017 21:00:00 14,6 12,6 13,8 14 8 18 10 ZO 1019,2 17 0,0
21.09.2017 20:00:00 15,0 12,4 14,1 14 8 22 12 ZZO 1018,9 20 0,0
21.09.2017 19:00:00 15,7 12,5 15,4 18 10 25 14 ZZO 1018,7 30 0,0
21.09.2017 18:00:00 16,1 12,4 15,8 22 12 29 16 Z 1018,6 27 0,0
21.09.2017 17:00:00 16,1 12,1 16,0 25 14 32 18 Z 1018,4 25 0,0
21.09.2017 16:00:00 16,5 12,7 16,5 25 14 36 19 Z 1018,4 20 0,0
21.09.2017 15:00:00 16,0 12,6 16,1 25 14 36 19 Z 1018,6 18 0,0
21.09.2017 14:00:00 16,0 12,8 16,3 29 16 40 21 Z 1018,7 16 0,0
21.09.2017 13:00:00 16,1 13,0 16,7 29 16 36 19 Z 1018,8 20 0,0
21.09.2017 12:00:00 15,9 12,8 16,4 29 16 36 19 Z 1018,8 19 0,0
21.09.2017 11:00:00 15,3 12,6 16,0 29 16 36 19 Z 1019,0 16 0,0
21.09.2017 10:00:00 14,9 13,5 15,4 22 12 32 18 Z 1018,9 9 0,0
21.09.2017 09:00:00 14,5 12,7 14,4 25 14 36 19 Z 1018,6 11 0,0
21.09.2017 08:00:00 13,9 12,5 13,3 25 14 32 18 Z 1018,3 9 0,0
21.09.2017 07:00:00 13,9 12,8 13,4 25 14 32 18 ZZW 1018,2 9 0,0
21.09.2017 06:00:00 14,4 13,3 14,1 22 12 32 18 ZZW 1018,0 9 0,0
21.09.2017 05:00:00 14,1 13,3 13,8 22 12 32 18 ZZW 1017,9 8 0,0
21.09.2017 04:00:00 14,5 13,6 14,3 25 14 32 18 Z 1018,0 9 0,0
21.09.2017 03:00:00 14,6 13,5 14,3 25 14 32 18 Z 1018,2 11 0,0
21.09.2017 02:00:00 14,4 13,5 13,9 22 12 32 18 Z 1018,2 12 0,0
21.09.2017 01:00:00 15,0 13,4 14,6 22 12 29 16 Z 1018,1 17 0,0
21.09.2017 00:00:00 14,8 13,5 14,5 22 12 25 14 Z 1018,1 25 0,0
20.09.2017 23:00:00 14,9 13,5 14,5 18 10 25 14 Z 1018,1 26 0,0
20.09.2017 22:00:00 14,9 13,1 14,4 14 8 22 12 ZZW 1018,2 26 0,0
20.09.2017 21:00:00 14,7 12,7 13,9 14 8 18 10 ZW 1018,5 26 0,0
20.09.2017 20:00:00 13,9 12,3 12,9 14 8 22 12 ZW 1018,2 23 0,0
20.09.2017 19:00:00 14,6 11,9 14,2 18 10 29 16 WZW 1018,0 30 0,0
20.09.2017 18:00:00 14,8 11,5 14,3 22 12 32 18 ZW 1018,1 39 0,0
20.09.2017 17:00:00 16,5 11,7 17,0 22 12 29 16 ZW 1018,2 36 0,0
20.09.2017 16:00:00 16,8 11,4 17,3 22 12 32 18 ZW 1018,3 31 0,0
20.09.2017 15:00:00 16,5 11,0 17,6 22 12 29 16 ZW 1018,3 32 0,0
20.09.2017 14:00:00 15,6 11,0 15,1 18 10 25 14 WZW 1018,4 28 0,0
20.09.2017 13:00:00 15,1 10,6 15,0 14 8 29 16 WZW 1018,5 12 0,0
20.09.2017 12:00:00 15,5 10,2 15,7 22 12 29 16 W 1018,5 32 0,0
20.09.2017 11:00:00 15,7 10,4 15,8 22 12 29 16 W 1018,3 30 0,0
20.09.2017 10:00:00 14,4 10,4 13,9 14 8 25 14 W 1018,2 26 0,0
20.09.2017 09:00:00 14,0 10,1 13,5 14 8 25 14 W 1018,0 23 0,0
20.09.2017 08:00:00 13,7 9,5 13,1 14 8 25 14 W 1017,9 30 0,0
20.09.2017 07:00:00 13,8 9,3 13,1 18 10 29 16 W 1018,0 32 0,0
20.09.2017 06:00:00 13,7 9,3 12,9 18 10 29 16 W 1017,7 28 0,0
20.09.2017 05:00:00 13,1 8,6 12,5 18 10 29 16 W 1018,1 35 0,0
20.09.2017 04:00:00 12,7 8,7 12,1 18 10 22 12 W 1018,3 40 0,0
20.09.2017 03:00:00 12,5 8,9 11,7 14 8 18 10 W 1018,6 41 0,0
20.09.2017 02:00:00 11,4 8,5 10,8 14 8 22 12 W 1018,7 41 0,0
20.09.2017 01:00:00 12,1 8,5 11,5 18 10 25 14 W 1018,7 42 0,0
20.09.2017 00:00:00 12,8 8,5 12,1 18 10 25 14 W 1019,0 40 0,0
19.09.2017 23:00:00 13,3 8,9 12,5 18 10 29 16 WNW 1019,2 27 0,0
19.09.2017 22:00:00 13,4 9,1 12,3 18 10 29 16 WNW 1019,2 42 0,0
19.09.2017 21:00:00 13,5 9,6 12,7 18 10 29 16 WNW 1019,1 34 0,0
19.09.2017 20:00:00 13,7 9,7 12,9 18 10 29 16 W 1018,7 37 0,0
19.09.2017 19:00:00 14,2 10,0 13,7 18 10 25 14 WNW 1018,6 37 0,0
19.09.2017 18:00:00 14,7 9,8 14,5 18 10 29 16 WNW 1018,5 37 0,0
19.09.2017 17:00:00 14,9 10,4 14,9 18 10 32 18 WNW 1018,3 37 0,0
19.09.2017 16:00:00 15,6 10,4 16,0 18 10 29 16 WNW 1018,2 28 0,0
19.09.2017 15:00:00 16,1 10,8 16,9 22 12 29 16 WNW 1018,0 31 0,0
19.09.2017 14:00:00 16,1 10,9 16,7 18 10 25 14 NW 1018,0 27 0,0
19.09.2017 13:00:00 16,2 11,1 16,7 18 10 25 14 NW 1017,9 25 0,0
19.09.2017 12:00:00 15,0 11,1 15,2 14 8 25 14 NW 1017,7 42 0,0
19.09.2017 11:00:00 15,1 9,9 15,0 11 6 18 10 NW 1017,6 37 0,0
19.09.2017 10:00:00 14,3 10,9 13,8 11 6 18 10 NNW 1017,1 35 0,0
19.09.2017 09:00:00 12,2 11,9 11,0 4 2 14 8 W 1016,6 20 0,0
19.09.2017 08:00:00 7,1 7,0 6,2 7 4 7 4 W 1016,2 8 0,0
19.09.2017 07:00:00 6,2 6,2 5,2 0 0 4 2 N 1015,9 4,7 0,0
19.09.2017 06:00:00 7,0 6,9 5,0 0 0 4 2 N 1015,4 0,9 0,0

tt = temperatuur
td = dauwpunt
tt 5cm = temperatuur 5cm
ff = windsnelheid
fx = windstoten
dd = windrichting
ppp = luchtdruk
vv = zicht
rr = neerslag

Weerstations in de omgeving